Weather History for Hulett, WY

Change the Weather History Date:

Friday, December 20, 2013

  Actual Average (KEFC) Record (KEFC)
Temperature  
Mean Temperature 11 °F -  
Max Temperature 26 °F 32 °F 64 °F (1979)
Min Temperature -4 °F 8 °F -22 °F (1990)
Degree Days  
Heating Degree Days 54    
Moisture  
Dew Point 4 °F    
Average Humidity 70    
Maximum Humidity 85    
Minimum Humidity 51    
Precipitation  
Precipitation 0.00 in - - ()
Sea Level Pressure  
Sea Level Pressure 29.70 in    
Wind  
Wind Speed 8 mph (SW)    
Max Wind Speed 13 mph    
Max Gust Speed -    
Visibility 10 miles    
Events      
Averages and records for this station are not official NWS values.
T = Trace of Precipitation, MM = Missing Value Source: NWS Daily Summary

Daily Weather History Graph

Daily Weather History Graph

Search for Another Location

Airport:

Trip Planner

Search our weather history database for the weather conditions in past years. The results will help you decide how hot, cold, wet, or windy it might be!

Date:

Astronomy

Dec. 20, 2013 Rise Set
Actual Time 7:31 AM MST 4:20 PM MST
Civil Twilight 6:58 AM MST 4:53 PM MST
Nautical Twilight 6:21 AM MST 5:31 PM MST
Astronomical Twilight 5:45 AM MST 6:06 PM MST
Moon 7:50 PM MST (12/20) 9:20 AM MST (12/20)
Length of Visible Light 9h 55m
Length of Day
8h 48m
Waning Gibbous, 90% of the Moon is Illuminated
Dec 20
Waning Gibbous
Dec 25
Last Quarter
Jan 1
New
Jan 7
First Quarter
Jan 15
Full

Hourly Weather History & Observations

Time (MST) Temp. Windchill Dew Point Humidity Pressure Visibility Wind Dir Wind Speed Gust Speed Precip Events Conditions
12:15 AM 1.4 °F - -4.0 °F 78% 29.89 in 10.0 mi North - - N/A   Clear
12:35 AM 1.4 °F - -4.0 °F 78% 29.89 in 10.0 mi North - - N/A   Clear
12:55 AM 1.4 °F -11.3 °F -4.0 °F 78% 29.89 in 10.0 mi SW 6.9 mph - N/A   Clear
1:15 AM 1.4 °F -16.1 °F -4.0 °F 78% 29.89 in 10.0 mi SSW 12.7 mph - N/A   Clear
1:35 AM 1.4 °F -16.1 °F -4.0 °F 78% 29.88 in 10.0 mi SSW 12.7 mph - N/A   Clear
1:55 AM 1.4 °F - -4.0 °F 78% 29.88 in 10.0 mi North - - N/A   Clear
2:15 AM -0.4 °F -16.7 °F -5.8 °F 78% 29.87 in 10.0 mi SSW 10.4 mph - N/A   Clear
2:35 AM -2.2 °F - -7.6 °F 78% 29.86 in 10.0 mi North - - N/A   Clear
2:55 AM 1.4 °F -13.5 °F -4.0 °F 78% 29.85 in 10.0 mi SSW 9.2 mph - N/A   Clear
3:15 AM 3.2 °F -13.1 °F -2.2 °F 78% 29.84 in 10.0 mi SSW 11.5 mph - N/A   Clear
3:35 AM 1.4 °F -12.5 °F -4.0 °F 78% 29.82 in 10.0 mi SSW 8.1 mph - N/A   Clear
3:55 AM 1.4 °F -13.5 °F -4.0 °F 78% 29.81 in 10.0 mi SW 9.2 mph - N/A   Clear
4:15 AM -0.4 °F -14.7 °F -5.8 °F 78% 29.80 in 10.0 mi SW 8.1 mph - N/A   Clear
4:35 AM -4.0 °F -17.8 °F -7.6 °F 85% 29.80 in 10.0 mi SSW 6.9 mph - N/A   Clear
4:55 AM -2.2 °F -14.2 °F -5.8 °F 85% 29.78 in 10.0 mi South 5.8 mph - N/A   Clear
5:15 AM -2.2 °F - -7.6 °F 78% 29.77 in 10.0 mi North - - N/A   Clear
5:35 AM -0.4 °F -15.7 °F -5.8 °F 78% 29.77 in 10.0 mi WSW 9.2 mph - N/A   Clear
5:55 AM -0.4 °F - -5.8 °F 78% 29.76 in 10.0 mi North - - N/A   Clear
6:15 AM 3.2 °F -9.1 °F -2.2 °F 78% 29.76 in 10.0 mi SW 6.9 mph - N/A   Clear
6:35 AM 5.0 °F -6.9 °F -0.4 °F 78% 29.76 in 10.0 mi SW 6.9 mph - N/A   Clear
6:55 AM 6.8 °F -7.8 °F 1.4 °F 79% 29.75 in 10.0 mi SW 10.4 mph - N/A   Clear
7:15 AM 6.8 °F -4.8 °F 1.4 °F 79% 29.75 in 10.0 mi SW 6.9 mph - N/A   Clear
7:35 AM -0.4 °F - -4.0 °F 85% 29.75 in 10.0 mi North - - N/A   Clear
7:55 AM 1.4 °F -8.3 °F -4.0 °F 78% 29.75 in 10.0 mi SW 4.6 mph - N/A   Clear
8:15 AM 6.8 °F -4.8 °F 1.4 °F 79% 29.75 in 10.0 mi SW 6.9 mph - N/A   Clear
8:35 AM 8.6 °F - 1.4 °F 73% 29.75 in 10.0 mi North - - N/A   Clear
8:55 AM 8.6 °F - 1.4 °F 73% 29.75 in 10.0 mi North - - N/A   Clear
9:15 AM 8.6 °F -3.7 °F 1.4 °F 73% 29.75 in 10.0 mi WSW 8.1 mph - N/A   Clear
9:35 AM 8.6 °F -2.6 °F 3.2 °F 79% 29.73 in 10.0 mi WSW 6.9 mph - N/A   Clear
9:55 AM 10.4 °F -0.4 °F 3.2 °F 73% 29.73 in 10.0 mi WSW 6.9 mph - N/A   Clear
10:15 AM 10.4 °F -1.5 °F 3.2 °F 73% 29.73 in 10.0 mi WSW 8.1 mph - N/A   Clear
10:35 AM 12.2 °F 1.7 °F 5.0 °F 73% 29.73 in 10.0 mi West 6.9 mph - N/A   Clear
10:55 AM 15.8 °F 5.1 °F 6.8 °F 68% 29.71 in 10.0 mi WSW 8.1 mph - N/A   Clear
11:15 AM 19.4 °F 8.6 °F 8.6 °F 63% 29.70 in 10.0 mi WSW 9.2 mph - N/A   Clear
11:35 AM 21.2 °F 10.9 °F 10.4 °F 63% 29.68 in 10.0 mi SW 9.2 mph - N/A   Clear
11:55 AM 23.0 °F 12.4 °F 10.4 °F 59% 29.67 in 10.0 mi WSW 10.4 mph - N/A   Clear
12:15 PM 21.2 °F 10.9 °F 10.4 °F 63% 29.67 in 10.0 mi WSW 9.2 mph - N/A   Clear
12:35 PM 23.0 °F 14.7 °F 10.4 °F 59% 29.66 in 10.0 mi SW 6.9 mph - N/A   Clear
12:55 PM 23.0 °F 13.1 °F 10.4 °F 59% 29.65 in 10.0 mi SW 9.2 mph - N/A   Clear
1:15 PM 24.8 °F 16.1 °F 10.4 °F 54% 29.64 in 10.0 mi WSW 8.1 mph - N/A   Clear
1:35 PM 24.8 °F 16.1 °F 10.4 °F 54% 29.64 in 10.0 mi WSW 8.1 mph - N/A   Clear
1:55 PM 24.8 °F 15.3 °F 10.4 °F 54% 29.63 in 10.0 mi SW 9.2 mph - N/A   Clear
2:15 PM 26.6 °F 16.8 °F 10.4 °F 51% 29.63 in 10.0 mi SW 10.4 mph - N/A   Clear
2:35 PM 24.8 °F 15.3 °F 10.4 °F 54% 29.63 in 10.0 mi SW 9.2 mph - N/A   Clear
2:55 PM 26.6 °F 18.2 °F 10.4 °F 51% 29.63 in 10.0 mi WSW 8.1 mph - N/A   Clear
3:15 PM 24.8 °F 14.6 °F 10.4 °F 54% 29.63 in 10.0 mi SW 10.4 mph - N/A   Clear
3:35 PM 24.8 °F 14.6 °F 10.4 °F 54% 29.63 in 10.0 mi SW 10.4 mph - N/A   Clear
3:55 PM 23.0 °F 13.1 °F 8.6 °F 54% 29.63 in 10.0 mi SW 9.2 mph - N/A   Clear
4:15 PM 21.2 °F 10.9 °F 8.6 °F 58% 29.63 in 10.0 mi SSW 9.2 mph - N/A   Clear
4:35 PM 21.2 °F 10.9 °F 8.6 °F 58% 29.63 in 10.0 mi SSW 9.2 mph - N/A   Clear
4:55 PM 21.2 °F 12.6 °F 8.6 °F 58% 29.62 in 10.0 mi SW 6.9 mph - N/A   Clear
5:15 PM 21.2 °F 10.9 °F 8.6 °F 58% 29.62 in 10.0 mi SW 9.2 mph - N/A   Clear
5:35 PM 21.2 °F 10.1 °F 8.6 °F 58% 29.62 in 10.0 mi SW 10.4 mph - N/A   Clear
5:55 PM 19.4 °F 7.9 °F 8.6 °F 63% 29.62 in 10.0 mi SSW 10.4 mph - N/A   Clear
6:15 PM 19.4 °F 10.4 °F 8.6 °F 63% 29.62 in 10.0 mi WSW 6.9 mph - N/A   Clear
6:35 PM 19.4 °F 10.4 °F 10.4 °F 68% 29.62 in 10.0 mi SW 6.9 mph - N/A   Clear
6:55 PM 17.6 °F 7.3 °F 8.6 °F 68% 29.60 in 10.0 mi SSW 8.1 mph - N/A   Mostly Cloudy
7:15 PM 17.6 °F 9.3 °F 8.6 °F 68% 29.60 in 10.0 mi SW 5.8 mph - N/A   Mostly Cloudy
7:35 PM 17.6 °F 8.2 °F 8.6 °F 68% 29.59 in 10.0 mi SW 6.9 mph - N/A   Mostly Cloudy
7:55 PM 17.6 °F 8.2 °F 8.6 °F 68% 29.59 in 10.0 mi SW 6.9 mph - N/A   Mostly Cloudy
8:15 PM 17.6 °F 8.2 °F 8.6 °F 68% 29.59 in 10.0 mi SW 6.9 mph - N/A   Overcast
8:35 PM 17.6 °F 9.3 °F 8.6 °F 68% 29.58 in 10.0 mi SW 5.8 mph - N/A   Overcast
8:55 PM 15.8 °F 8.6 °F 8.6 °F 73% 29.58 in 10.0 mi West 4.6 mph - N/A   Mostly Cloudy
9:15 PM 14.0 °F 3.9 °F 8.6 °F 79% 29.59 in 10.0 mi WSW 6.9 mph - N/A   Scattered Clouds
9:35 PM 14.0 °F 3.9 °F 8.6 °F 79% 29.58 in 10.0 mi WSW 6.9 mph - N/A   Clear
9:55 PM 15.8 °F 5.1 °F 8.6 °F 73% 29.58 in 10.0 mi SW 8.1 mph - N/A   Clear
10:15 PM 14.0 °F 3.9 °F 6.8 °F 73% 29.58 in 10.0 mi SW 6.9 mph - N/A   Clear
10:35 PM 12.2 °F 2.9 °F 6.8 °F 79% 29.58 in 10.0 mi SW 5.8 mph - N/A   Clear
10:55 PM 12.2 °F 2.9 °F 5.0 °F 73% 29.58 in 10.0 mi SW 5.8 mph - N/A   Clear
11:16 PM 12.2 °F - 6.8 °F 79% 29.58 in 10.0 mi Calm Calm - N/A   Clear
11:35 PM 14.0 °F - 6.8 °F 73% 29.57 in 10.0 mi Calm Calm - N/A   Clear
11:55 PM 14.0 °F - 8.6 °F 79% 29.56 in 10.0 mi Calm Calm - N/A   Scattered Clouds